| time (UTC) | temp F | wind direction | speed MPH | gust MPH | rain 1hr in | rain 24hr in | rain mn in | humidity % | barometer mb |
| 20260508064057 | 63 | 0.0 | 1.0 | 0.00 | 0.00 | 0.00 | 95 | 1013.4 | |
| 20260508063034 | 63 | 0.0 | 3.0 | 0.00 | 0.00 | 0.00 | 94 | 1012.8 | |
| 20260508062032 | 64 | 0.0 | 1.0 | 0.00 | 0.00 | 0.00 | 92 | 1012.2 | |
| 20260508061049 | 65 | 0.0 | 0.0 | 0.00 | 0.00 | 0.00 | 92 | 1012.5 | |
| 20260508060026 | 66 | 0.0 | 1.0 | 0.00 | 0.00 | 0.00 | 92 | 1013.0 | |
| 20260508055023 | 68 | 0.0 | 2.0 | 0.00 | 0.00 | 0.00 | 94 | 1012.8 | |
| 20260508054041 | 68 | 0.0 | 1.0 | 0.00 | 0.00 | 0.00 | 91 | 1012.0 | |
| 20260508053018 | 69 | 0.0 | 1.0 | 0.00 | 0.00 | 0.00 | 86 | 1012.2 | |
| 20260508052015 | 71 | 0.0 | 1.0 | 0.00 | 0.00 | 0.00 | 77 | 1011.9 | |
| 20260508051113 | 72 | 0.0 | 2.0 | 0.00 | 0.00 | 0.00 | 74 | 1011.2 | |
| 20260508050130 | 72 | 0.0 | 2.0 | 0.00 | 0.00 | 0.00 | 74 | 1011.1 | |
| 20260508045107 | 72 | 0.0 | 0.0 | 0.00 | 0.00 | 0.00 | 75 | 1011.1 | |
| 20260508044105 | 72 | 0.0 | 1.0 | 0.00 | 0.00 | 0.00 | 76 | 1011.0 | |
| 20260508043122 | 72 | 0.0 | 0.0 | 0.00 | 0.00 | 0.00 | 76 | 1010.9 | |
| 20260508042059 | 71 | 0.0 | 1.0 | 0.00 | 0.00 | 0.00 | 77 | 1011.0 | |
| 20260508041056 | 71 | 0.0 | 0.0 | 0.00 | 0.00 | 0.00 | 77 | 1011.2 | |
| 20260508040054 | 71 | 0.0 | 1.0 | 0.00 | 0.00 | 0.00 | 78 | 1011.5 | |
| 20260508035051 | 71 | 0.0 | 0.0 | 0.00 | 0.00 | 0.00 | 80 | 1011.5 | |
| 20260508034048 | 70 | 0.0 | 1.0 | 0.00 | 0.00 | 0.00 | 83 | 1011.7 | |
| 20260508033045 | 70 | 0.0 | 0.0 | 0.00 | 0.00 | 0.00 | 87 | 1011.8 | |
| 20260508032042 | 70 | 0.0 | 0.0 | 0.00 | 0.00 | 0.00 | 87 | 1011.7 | |
| 20260508031040 | 70 | 0.0 | 1.0 | 0.00 | 0.00 | 0.00 | 86 | 1012.0 | |
| 20260508030037 | 70 | 0.0 | 0.0 | 0.00 | 0.00 | 0.00 | 83 | 1012.7 | |
| 20260508025054 | 72 | 158 | 0.0 | 2.0 | 0.00 | 0.00 | 0.00 | 74 | 1012.4 |
| 20260508024031 | 75 | 135 | 0.0 | 2.0 | 0.00 | 0.00 | 0.00 | 65 | 1012.8 |
| 20260508023028 | 80 | 146 | 0.0 | 3.0 | 0.00 | 0.00 | 0.00 | 56 | 1012.5 |
| 20260508022026 | 83 | 0.0 | 0.0 | 0.00 | 0.00 | 0.00 | 48 | 1009.4 | |
| 20260508021023 | 82 | 0.0 | 1.0 | 0.00 | 0.00 | 0.00 | 50 | 1009.5 | |
| 20260508020020 | 82 | 0.0 | 0.0 | 0.00 | 0.00 | 0.00 | 50 | 1009.3 | |
| 20260508015017 | 82 | 0.0 | 0.0 | 0.00 | 0.00 | 0.00 | 50 | 1009.5 | |
| 20260508014114 | 83 | 0.0 | 0.0 | 0.00 | 0.00 | 0.00 | 49 | 1009.7 | |
| 20260508013111 | 82 | 0.0 | 0.0 | 0.00 | 0.00 | 0.00 | 49 | 1009.8 | |
| 20260508012109 | 82 | 0.0 | 0.0 | 0.00 | 0.00 | 0.00 | 50 | 1009.9 | |
| 20260508011106 | 82 | 0.0 | 0.0 | 0.00 | 0.00 | 0.00 | 49 | 1010.0 | |
| 20260508005100 | 82 | 0.0 | 0.0 | 0.00 | 0.00 | 0.00 | 50 | 1010.1 | |
| 20260508004058 | 83 | 0.0 | 0.0 | 0.00 | 0.00 | 0.00 | 49 | 1009.9 | |
| 20260508003115 | 83 | 0.0 | 0.0 | 0.00 | 0.00 | 0.00 | 49 | 1010.0 | |
| 20260508002052 | 83 | 0.0 | 0.0 | 0.00 | 0.00 | 0.00 | 49 | 1009.8 | |
| 20260508001049 | 82 | 0.0 | 0.0 | 0.00 | 0.00 | 0.00 | 50 | 1009.8 | |
| 20260508000047 | 82 | 0.0 | 2.0 | 0.00 | 0.00 | 0.00 | 50 | 1009.8 | |
| 20260507235043 | 82 | 0.0 | 1.0 | 0.00 | 0.00 | 0.00 | 51 | 1010.0 | |
| 20260507234041 | 81 | 0.0 | 0.0 | 0.00 | 0.00 | 0.00 | 58 | 1010.0 | |
| 20260507233038 | 81 | 0.0 | 0.0 | 0.00 | 0.00 | 0.00 | 59 | 1010.0 | |
| 20260507232055 | 80 | 0.0 | 0.0 | 0.00 | 0.00 | 0.00 | 60 | 1010.1 | |
| 20260507231032 | 81 | 0.0 | 0.0 | 0.00 | 0.00 | 0.00 | 60 | 1010.1 | |
| 20260507230029 | 81 | 0.0 | 0.0 | 0.00 | 0.00 | 0.00 | 59 | 1010.2 | |
| 20260507225027 | 81 | 0.0 | 0.0 | 0.00 | 0.00 | 0.00 | 59 | 1010.3 | |
| 20260507224024 | 81 | 0.0 | 0.0 | 0.00 | 0.00 | 0.00 | 59 | 1010.4 | |
| 20260507223021 | 81 | 0.0 | 0.0 | 0.00 | 0.00 | 0.00 | 54 | 1010.5 | |
| 20260507222038 | 82 | 0.0 | 0.0 | 0.00 | 0.00 | 0.00 | 53 | 1010.6 | |
| 20260507221035 | 82 | 0.0 | 0.0 | 0.00 | 0.00 | 0.00 | 53 | 1010.8 | |
| 20260507220113 | 82 | 0.0 | 0.0 | 0.00 | 0.00 | 0.00 | 53 | 1010.7 | |
| 20260507215110 | 83 | 0.0 | 0.0 | 0.00 | 0.00 | 0.00 | 52 | 1010.8 | |
| 20260507214107 | 83 | 0.0 | 0.0 | 0.00 | 0.00 | 0.00 | 52 | 1010.9 | |
| 20260507213104 | 83 | 0.0 | 0.0 | 0.00 | 0.00 | 0.00 | 51 | 1010.9 | |
| 20260507212102 | 84 | 0.0 | 0.0 | 0.00 | 0.00 | 0.00 | 50 | 1010.9 | |
| 20260507211059 | 84 | 0.0 | 0.0 | 0.00 | 0.00 | 0.00 | 50 | 1010.9 | |
| 20260507210056 | 84 | 0.0 | 0.0 | 0.00 | 0.00 | 0.00 | 50 | 1011.0 | |
| 20260507205053 | 84 | 0.0 | 0.0 | 0.00 | 0.00 | 0.00 | 50 | 1010.9 | |
| 20260507204110 | 85 | 0.0 | 0.0 | 0.00 | 0.00 | 0.00 | 46 | 1010.9 | |
| 20260507203047 | 86 | 0.0 | 0.0 | 0.00 | 0.00 | 0.00 | 46 | 1010.9 | |
| 20260507202044 | 86 | 0.0 | 0.0 | 0.00 | 0.00 | 0.00 | 46 | 1010.8 | |
| 20260507201102 | 86 | 0.0 | 0.0 | 0.00 | 0.00 | 0.00 | 44 | 1010.7 | |
| 20260507200039 | 87 | 0.0 | 0.0 | 0.00 | 0.00 | 0.00 | 44 | 1010.8 | |
| 20260507195036 | 87 | 0.0 | 0.0 | 0.00 | 0.00 | 0.00 | 43 | 1010.8 | |
| 20260507194033 | 87 | 0.0 | 0.0 | 0.00 | 0.00 | 0.00 | 43 | 1010.9 | |
| 20260507193051 | 87 | 0.0 | 1.0 | 0.00 | 0.00 | 0.00 | 43 | 1011.2 | |
| 20260507192028 | 87 | 0.0 | 0.0 | 0.00 | 0.00 | 0.00 | 43 | 1011.1 | |
| 20260507191025 | 88 | 0.0 | 0.0 | 0.00 | 0.00 | 0.00 | 43 | 1011.1 | |
| 20260507190022 | 88 | 0.0 | 0.0 | 0.00 | 0.00 | 0.00 | 42 | 1010.9 | |
| 20260507185020 | 88 | 0.0 | 0.0 | 0.00 | 0.00 | 0.00 | 42 | 1010.9 | |
| 20260507184017 | 88 | 0.0 | 0.0 | 0.00 | 0.00 | 0.00 | 42 | 1011.1 | |
| 20260507183134 | 88 | 0.0 | 1.0 | 0.00 | 0.00 | 0.00 | 42 | 1011.0 | |
| 20260507182111 | 88 | 0.0 | 0.0 | 0.00 | 0.00 | 0.00 | 42 | 1011.0 | |
| 20260507181109 | 89 | 0.0 | 0.0 | 0.00 | 0.00 | 0.00 | 42 | 1010.7 | |
| 20260507180126 | 89 | 135 | 0.0 | 4.0 | 0.00 | 0.00 | 0.00 | 42 | 1010.7 |
| 20260507175103 | 89 | 0.0 | 0.0 | 0.00 | 0.00 | 0.00 | 42 | 1010.9 | |
| 20260507174100 | 91 | 0.0 | 1.0 | 0.00 | 0.00 | 0.00 | 39 | 1010.7 | |
| 20260507173058 | 91 | 0.0 | 1.0 | 0.00 | 0.00 | 0.00 | 40 | 1010.7 | |
| 20260507172055 | 90 | 0.0 | 1.0 | 0.00 | 0.00 | 0.00 | 41 | 1010.9 | |
| 20260507171052 | 90 | 0.0 | 0.0 | 0.00 | 0.00 | 0.00 | 42 | 1010.8 | |
| 20260507170049 | 91 | 0.0 | 1.0 | 0.00 | 0.00 | 0.00 | 39 | 1010.8 | |
| 20260507165046 | 91 | 135 | 0.0 | 5.0 | 0.00 | 0.00 | 0.00 | 39 | 1010.8 |
| 20260507164103 | 92 | 0.0 | 2.0 | 0.00 | 0.00 | 0.00 | 38 | 1011.1 | |
| 20260507163041 | 92 | 0.0 | 4.0 | 0.00 | 0.00 | 0.00 | 39 | 1011.3 | |
| 20260507162038 | 91 | 0.0 | 2.0 | 0.00 | 0.00 | 0.00 | 40 | 1011.6 | |
| 20260507161035 | 91 | 135 | 0.0 | 4.0 | 0.00 | 0.00 | 0.00 | 40 | 1012.0 |
| 20260507160032 | 91 | 0.0 | 0.0 | 0.00 | 0.00 | 0.00 | 40 | 1012.2 | |
| 20260507155049 | 91 | 0.0 | 0.0 | 0.00 | 0.00 | 0.00 | 41 | 1012.4 | |
| 20260507154027 | 91 | 0.0 | 2.0 | 0.00 | 0.00 | 0.00 | 41 | 1012.8 | |
| 20260507153024 | 90 | 0.0 | 0.0 | 0.00 | 0.00 | 0.00 | 43 | 1012.9 | |
| 20260507152041 | 90 | 0.0 | 2.0 | 0.00 | 0.00 | 0.00 | 45 | 1013.1 | |
| 20260507151018 | 89 | 0.0 | 3.0 | 0.00 | 0.00 | 0.00 | 44 | 1013.4 | |
| 20260507150015 | 89 | 0.0 | 2.0 | 0.00 | 0.00 | 0.00 | 45 | 1013.9 | |
| 20260507145113 | 89 | 0.0 | 1.0 | 0.00 | 0.00 | 0.00 | 45 | 1014.2 | |
| 20260507144130 | 89 | 0.0 | 1.0 | 0.00 | 0.00 | 0.00 | 48 | 1014.3 | |
| 20260507143108 | 88 | 0.0 | 3.0 | 0.00 | 0.00 | 0.00 | 49 | 1014.6 | |
| 20260507142125 | 88 | 0.0 | 1.0 | 0.00 | 0.00 | 0.00 | 49 | 1015.1 | |
| 20260507141102 | 87 | 0.0 | 1.0 | 0.00 | 0.00 | 0.00 | 50 | 1015.3 | |
| 20260507140119 | 86 | 0.0 | 1.0 | 0.00 | 0.00 | 0.00 | 51 | 1015.6 | |
| 20260507135056 | 87 | 0.0 | 1.0 | 0.00 | 0.00 | 0.00 | 52 | 1016.0 | |
| 20260507134053 | 87 | 0.0 | 1.0 | 0.00 | 0.00 | 0.00 | 53 | 1016.4 | |
| 20260507133051 | 86 | 0.0 | 0.0 | 0.00 | 0.00 | 0.00 | 54 | 1016.7 | |
| 20260507132048 | 86 | 0.0 | 1.0 | 0.00 | 0.00 | 0.00 | 55 | 1017.0 | |
| 20260507131045 | 85 | 0.0 | 0.0 | 0.00 | 0.00 | 0.00 | 57 | 1017.1 | |
| 20260507130042 | 84 | 0.0 | 0.0 | 0.00 | 0.00 | 0.00 | 59 | 1017.2 | |
| 20260507125039 | 85 | 0.0 | 0.0 | 0.00 | 0.00 | 0.00 | 58 | 1017.5 | |
| 20260507124036 | 83 | 0.0 | 0.0 | 0.00 | 0.00 | 0.00 | 63 | 1017.6 | |
| 20260507123034 | 80 | 0.0 | 0.0 | 0.00 | 0.00 | 0.00 | 69 | 1017.6 | |
| 20260507122031 | 81 | 0.0 | 0.0 | 0.00 | 0.00 | 0.00 | 67 | 1017.4 | |
| 20260507121028 | 80 | 0.0 | 0.0 | 0.00 | 0.00 | 0.00 | 67 | 1017.3 | |
| 20260507120025 | 80 | 0.0 | 0.0 | 0.00 | 0.00 | 0.00 | 67 | 1017.4 | |
| 20260507115043 | 80 | 0.0 | 0.0 | 0.00 | 0.00 | 0.00 | 67 | 1017.5 | |
| 20260507114020 | 79 | 0.0 | 0.0 | 0.00 | 0.00 | 0.00 | 69 | 1017.8 | |
| 20260507113037 | 80 | 0.0 | 0.0 | 0.00 | 0.00 | 0.00 | 66 | 1017.9 | |
| 20260507112114 | 80 | 0.0 | 0.0 | 0.00 | 0.00 | 0.00 | 66 | 1017.8 | |
| 20260507111131 | 80 | 0.0 | 0.0 | 0.00 | 0.00 | 0.00 | 67 | 1017.7 | |
| 20260507110109 | 79 | 0.0 | 0.0 | 0.00 | 0.00 | 0.00 | 68 | 1017.6 | |
| 20260507105106 | 78 | 0.0 | 0.0 | 0.00 | 0.00 | 0.00 | 70 | 1017.5 | |
| 20260507104103 | 77 | 0.0 | 0.0 | 0.00 | 0.00 | 0.00 | 71 | 1017.5 | |
| 20260507103101 | 76 | 0.0 | 0.0 | 0.00 | 0.00 | 0.00 | 72 | 1017.5 | |
| 20260507102058 | 75 | 0.0 | 0.0 | 0.00 | 0.00 | 0.00 | 73 | 1017.5 | |
| 20260507101055 | 75 | 0.0 | 0.0 | 0.00 | 0.00 | 0.00 | 73 | 1017.7 | |
| 20260507100052 | 74 | 0.0 | 0.0 | 0.00 | 0.00 | 0.00 | 74 | 1017.8 | |
| 20260507095049 | 74 | 0.0 | 0.0 | 0.00 | 0.00 | 0.00 | 75 | 1017.8 | |
| 20260507094047 | 74 | 0.0 | 0.0 | 0.00 | 0.00 | 0.00 | 75 | 1017.9 | |
| 20260507093043 | 74 | 0.0 | 0.0 | 0.00 | 0.00 | 0.00 | 75 | 1017.9 | |
| 20260507092041 | 74 | 0.0 | 0.0 | 0.00 | 0.00 | 0.00 | 75 | 1017.7 | |
| 20260507091038 | 74 | 0.0 | 0.0 | 0.00 | 0.00 | 0.00 | 76 | 1017.7 | |
| 20260507090035 | 73 | 0.0 | 0.0 | 0.00 | 0.00 | 0.00 | 77 | 1017.6 | |
| 20260507085033 | 73 | 0.0 | 0.0 | 0.00 | 0.00 | 0.00 | 77 | 1017.6 | |
| 20260507084030 | 73 | 0.0 | 0.0 | 0.00 | 0.00 | 0.00 | 77 | 1017.8 | |
| 20260507083027 | 74 | 0.0 | 0.0 | 0.00 | 0.00 | 0.00 | 75 | 1017.7 | |
| 20260507082024 | 74 | 0.0 | 0.0 | 0.00 | 0.00 | 0.00 | 75 | 1017.9 | |
| 20260507081021 | 75 | 0.0 | 1.0 | 0.00 | 0.00 | 0.00 | 74 | 1017.7 | |
| 20260507080019 | 75 | 0.0 | 0.0 | 0.00 | 0.00 | 0.00 | 74 | 1017.8 | |
| 20260507075016 | 75 | 0.0 | 0.0 | 0.00 | 0.00 | 0.00 | 73 | 1017.8 | |
| 20260507074113 | 75 | 0.0 | 0.0 | 0.00 | 0.00 | 0.00 | 74 | 1017.9 | |
| 20260507073130 | 75 | 0.0 | 0.0 | 0.00 | 0.00 | 0.00 | 75 | 1017.9 | |
| 20260507072108 | 75 | 0.0 | 0.0 | 0.00 | 0.00 | 0.00 | 75 | 1018.1 | |
| 20260507071105 | 75 | 0.0 | 0.0 | 0.00 | 0.00 | 0.00 | 75 | 1018.2 | |
| 20260507065059 | 76 | 0.0 | 0.0 | 0.00 | 0.00 | 0.00 | 73 | 1018.3 |